Вернуться в каталог

STARLINK-32445

АктивенСвязьVLEO
NORAD 61546·PAYLOAD·🇺🇸 United States

Запущен Oct 15, 2024 с Vandenberg Space Force Base

Loading…

Ближайшие Пролёты (ближайшие 24 часа)

TLE

СвежийSource: CelesTrak SupGP

Эпоха: Sep 15, 2026, 03:17 UTC

1 61546C 24184Q   26258.13729167  .00000734  00000+0  19812-4 0  2586
2 61546  53.1574 209.7489 0002644  57.2758 239.9753 15.37212058    11

Отслеживайте STARLINK-32445 в реальном времени с AllMySat

Download on the App Store